| time (UTC) | temp F | wind direction | speed MPH | gust MPH | rain 1hr in | rain 24hr in | rain mn in | humidity % | barometer mb |
| 20260506152924 | 68 | 262 | 1.0 | 1.0 | 0.00 | 0.61 | 0.61 | 99 | 4248.1 |
| 20260506151920 | 67 | 262 | 0.0 | 0.0 | 0.00 | 0.61 | 0.61 | 99 | 4248.1 |
| 20260506150920 | 67 | 280 | 0.0 | 0.0 | 0.00 | 0.61 | 0.61 | 99 | 4248.3 |
| 20260506145919 | 67 | 245 | 0.0 | 1.0 | 0.00 | 0.61 | 0.61 | 99 | 4248.5 |
| 20260506144918 | 67 | 243 | 2.0 | 2.0 | 0.00 | 0.61 | 0.61 | 99 | 4248.4 |
| 20260506143913 | 67 | 85 | 2.0 | 3.0 | 0.00 | 0.61 | 0.61 | 99 | 4247.9 |
| 20260506142908 | 67 | 252 | 0.0 | 1.0 | 0.00 | 0.61 | 0.61 | 99 | 4247.7 |
| 20260506141904 | 67 | 27 | 1.0 | 1.0 | 0.00 | 0.61 | 0.61 | 99 | 4247.9 |
| 20260506140859 | 67 | 314 | 1.0 | 2.0 | 0.00 | 0.61 | 0.61 | 99 | 4247.9 |
| 20260506135859 | 66 | 339 | 1.0 | 1.0 | 0.00 | 0.61 | 0.61 | 99 | 4247.7 |
| 20260506134858 | 66 | 321 | 3.0 | 5.0 | 0.00 | 0.61 | 0.61 | 99 | 4247.9 |
| 20260506133857 | 66 | 233 | 2.0 | 5.0 | 0.07 | 0.61 | 0.61 | 99 | 4247.9 |
| 20260506132856 | 67 | 219 | 2.0 | 3.0 | 0.00 | 0.60 | 0.60 | 99 | 4247.6 |
| 20260506131851 | 67 | 55 | 1.0 | 1.0 | 0.00 | 0.60 | 0.60 | 99 | 4247.4 |
| 20260506130850 | 67 | 257 | 1.0 | 2.0 | 0.00 | 0.60 | 0.60 | 99 | 4247.4 |
| 20260506125850 | 66 | 187 | 2.0 | 3.0 | 0.00 | 0.60 | 0.60 | 99 | 4247.2 |
| 20260506124846 | 66 | 248 | 2.0 | 2.0 | 0.12 | 0.60 | 0.60 | 99 | 4247.0 |
| 20260506123846 | 66 | 292 | 1.0 | 1.0 | 0.19 | 0.59 | 0.59 | 99 | 4246.6 |
| 20260506122842 | 66 | 352 | 0.0 | 0.0 | 0.26 | 0.55 | 0.55 | 99 | 4247.9 |
| 20260506121843 | 66 | 201 | 1.0 | 1.0 | 0.12 | 0.51 | 0.51 | 99 | 4248.0 |
| 20260506120842 | 66 | 309 | 0.0 | 1.0 | 0.52 | 0.49 | 0.49 | 99 | 4247.8 |
| 20260506115837 | 67 | 348 | 0.0 | 1.0 | 2.22 | 0.41 | 0.41 | 99 | 4247.8 |
| 20260506114833 | 71 | 309 | 11.0 | 13.0 | 0.00 | 0.00 | 0.00 | 95 | 4247.8 |
| 20260506113829 | 71 | 292 | 3.0 | 3.0 | 0.00 | 0.00 | 0.00 | 93 | 4245.5 |
| 20260506112828 | 71 | 325 | 3.0 | 5.0 | 0.00 | 0.00 | 0.00 | 90 | 4245.5 |
| 20260506111823 | 72 | 160 | 3.0 | 5.0 | 0.00 | 0.00 | 0.00 | 90 | 4245.3 |
| 20260506110818 | 72 | 151 | 5.0 | 7.0 | 0.00 | 0.00 | 0.00 | 90 | 4245.2 |
| 20260506105818 | 72 | 67 | 2.0 | 2.0 | 0.00 | 0.00 | 0.00 | 89 | 4244.9 |
| 20260506104818 | 72 | 4 | 3.0 | 5.0 | 0.00 | 0.00 | 0.00 | 89 | 4245.1 |
| 20260506103813 | 72 | 259 | 2.0 | 5.0 | 0.00 | 0.00 | 0.00 | 89 | 4245.0 |
| 20260506102813 | 72 | 196 | 2.0 | 3.0 | 0.00 | 0.00 | 0.00 | 89 | 4245.0 |
| 20260506101808 | 72 | 197 | 4.0 | 5.0 | 0.00 | 0.00 | 0.00 | 89 | 4245.1 |
| 20260506100807 | 72 | 342 | 1.0 | 2.0 | 0.00 | 0.00 | 0.00 | 89 | 4245.3 |
| 20260506095803 | 72 | 274 | 2.0 | 2.0 | 0.00 | 0.00 | 0.00 | 89 | 4245.1 |
| 20260506094803 | 71 | 253 | 3.0 | 5.0 | 0.00 | 0.00 | 0.00 | 89 | 4245.0 |
| 20260506093759 | 72 | 255 | 3.0 | 6.0 | 0.00 | 0.00 | 0.00 | 88 | 4245.0 |
| 20260506092754 | 72 | 251 | 2.0 | 2.0 | 0.00 | 0.00 | 0.00 | 88 | 4244.8 |
| 20260506091754 | 72 | 38 | 1.0 | 1.0 | 0.00 | 0.00 | 0.00 | 87 | 4244.7 |
| 20260506090750 | 72 | 238 | 2.0 | 2.0 | 0.00 | 0.00 | 0.00 | 87 | 4244.7 |
| 20260506085749 | 72 | 235 | 2.0 | 2.0 | 0.00 | 0.00 | 0.00 | 87 | 4244.6 |
| 20260506084748 | 72 | 33 | 1.0 | 1.0 | 0.00 | 0.00 | 0.00 | 86 | 4244.5 |
| 20260506083747 | 72 | 74 | 1.0 | 1.0 | 0.00 | 0.00 | 0.00 | 86 | 4244.8 |
| 20260506082742 | 72 | 246 | 0.0 | 2.0 | 0.00 | 0.00 | 0.00 | 85 | 4244.7 |
| 20260506081741 | 72 | 204 | 5.0 | 7.0 | 0.00 | 0.00 | 0.00 | 85 | 4244.6 |
| 20260506080736 | 72 | 48 | 1.0 | 2.0 | 0.00 | 0.00 | 0.00 | 84 | 4245.0 |
| 20260506072731 | 72 | 50 | 2.0 | 3.0 | 0.00 | 0.00 | 0.00 | 83 | 4244.5 |
| 20260506071726 | 72 | 276 | 5.0 | 7.0 | 0.00 | 0.00 | 0.00 | 83 | 4244.5 |
| 20260506070726 | 72 | 253 | 2.0 | 2.0 | 0.00 | 0.00 | 0.00 | 82 | 4244.7 |
| 20260506061714 | 72 | 227 | 2.0 | 3.0 | 0.00 | 0.00 | 0.00 | 81 | 4244.5 |
| 20260506060710 | 72 | 206 | 2.0 | 3.0 | 0.00 | 0.00 | 0.00 | 81 | 4244.7 |
| 20260506050700 | 73 | 127 | 2.0 | 2.0 | 0.00 | 0.00 | 0.00 | 78 | 4245.6 |
| 20260506044654 | 73 | 347 | 3.0 | 5.0 | 0.00 | 0.00 | 0.00 | 78 | 4245.5 |
| 20260506043654 | 73 | 329 | 3.0 | 5.0 | 0.00 | 0.00 | 0.00 | 78 | 4245.4 |
| 20260506042651 | 72 | 348 | 1.0 | 1.0 | 0.00 | 0.00 | 0.00 | 78 | 4245.8 |
| 20260506041652 | 72 | 200 | 3.0 | 5.0 | 0.00 | 0.00 | 0.00 | 78 | 4245.7 |
| 20260506040647 | 72 | 337 | 1.0 | 1.0 | 0.00 | 0.00 | 0.00 | 77 | 4246.0 |
| 20260506035641 | 72 | 303 | 1.0 | 2.0 | 0.00 | 0.00 | 0.00 | 77 | 4246.1 |
| 20260506034640 | 72 | 189 | 2.0 | 3.0 | 0.00 | 0.00 | 0.00 | 77 | 4246.2 |
| 20260506033640 | 72 | 157 | 2.0 | 2.0 | 0.00 | 0.00 | 0.00 | 77 | 4246.1 |
| 20260506032640 | 72 | 244 | 3.0 | 3.0 | 0.00 | 0.00 | 0.00 | 77 | 4246.2 |
| 20260506031639 | 72 | 240 | 1.0 | 2.0 | 0.00 | 0.00 | 0.00 | 77 | 4246.1 |
| 20260506030635 | 71 | 252 | 1.0 | 2.0 | 0.00 | 0.00 | 0.00 | 77 | 4246.2 |
| 20260506025634 | 71 | 9 | 0.0 | 1.0 | 0.00 | 0.00 | 0.00 | 78 | 4245.9 |
| 20260506024634 | 71 | 232 | 1.0 | 2.0 | 0.00 | 0.00 | 0.00 | 78 | 4246.0 |
| 20260506023632 | 71 | 40 | 0.0 | 0.0 | 0.00 | 0.00 | 0.00 | 78 | 4245.8 |
| 20260506022632 | 71 | 10 | 0.0 | 1.0 | 0.00 | 0.00 | 0.00 | 78 | 4245.7 |
| 20260506021627 | 71 | 105 | 1.0 | 1.0 | 0.00 | 0.00 | 0.00 | 78 | 4245.7 |
| 20260506020627 | 71 | 314 | 0.0 | 0.0 | 0.00 | 0.00 | 0.00 | 78 | 4245.9 |
| 20260506015622 | 71 | 257 | 0.0 | 1.0 | 0.00 | 0.00 | 0.00 | 78 | 4245.8 |
| 20260506014617 | 71 | 50 | 1.0 | 1.0 | 0.00 | 0.00 | 0.00 | 77 | 4245.3 |
| 20260506013616 | 71 | 356 | 1.0 | 1.0 | 0.00 | 0.00 | 0.00 | 77 | 4245.0 |
| 20260506012615 | 71 | 65 | 1.0 | 2.0 | 0.00 | 0.00 | 0.00 | 77 | 4245.4 |
| 20260506011615 | 71 | 300 | 0.0 | 1.0 | 0.00 | 0.00 | 0.00 | 77 | 4245.3 |
| 20260506010611 | 71 | 332 | 1.0 | 1.0 | 0.00 | 0.00 | 0.00 | 76 | 4245.0 |
| 20260506005610 | 71 | 5 | 1.0 | 1.0 | 0.00 | 0.00 | 0.00 | 76 | 4245.4 |
| 20260506004609 | 71 | 307 | 2.0 | 2.0 | 0.00 | 0.00 | 0.00 | 76 | 4245.6 |
| 20260506003608 | 71 | 180 | 3.0 | 5.0 | 0.00 | 0.00 | 0.00 | 76 | 4245.7 |
| 20260506002606 | 72 | 267 | 4.0 | 5.0 | 0.00 | 0.00 | 0.00 | 75 | 4245.7 |
| 20260506001604 | 72 | 224 | 2.0 | 5.0 | 0.00 | 0.00 | 0.00 | 74 | 4245.8 |
| 20260506000559 | 72 | 264 | 2.0 | 2.0 | 0.00 | 0.00 | 0.00 | 74 | 4245.5 |
| 20260505235554 | 72 | 41 | 1.0 | 1.0 | 0.00 | 0.00 | 0.00 | 73 | 4245.9 |
| 20260505234554 | 72 | 62 | 2.0 | 2.0 | 0.00 | 0.00 | 0.00 | 73 | 4245.7 |
| 20260505233554 | 73 | 10 | 0.0 | 1.0 | 0.00 | 0.00 | 0.00 | 72 | 4245.6 |
| 20260505232549 | 73 | 288 | 2.0 | 3.0 | 0.00 | 0.00 | 0.00 | 72 | 4245.9 |
| 20260505231548 | 73 | 282 | 1.0 | 2.0 | 0.00 | 0.00 | 0.00 | 72 | 4245.7 |
| 20260505230544 | 73 | 39 | 1.0 | 1.0 | 0.00 | 0.00 | 0.00 | 71 | 4245.8 |
| 20260505225543 | 73 | 235 | 3.0 | 3.0 | 0.00 | 0.00 | 0.00 | 71 | 4246.0 |
| 20260505224542 | 73 | 267 | 2.0 | 3.0 | 0.00 | 0.00 | 0.00 | 70 | 4246.1 |
| 20260505223542 | 73 | 251 | 3.0 | 3.0 | 0.00 | 0.00 | 0.00 | 70 | 4246.1 |
| 20260505222540 | 73 | 313 | 2.0 | 3.0 | 0.00 | 0.00 | 0.00 | 70 | 4246.2 |
| 20260505221539 | 74 | 311 | 3.0 | 3.0 | 0.00 | 0.00 | 0.00 | 68 | 4246.2 |
| 20260505220539 | 74 | 251 | 3.0 | 7.0 | 0.00 | 0.00 | 0.00 | 68 | 4246.4 |
| 20260505215535 | 74 | 327 | 1.0 | 1.0 | 0.00 | 0.00 | 0.00 | 68 | 4246.5 |
| 20260505214530 | 74 | 331 | 1.0 | 1.0 | 0.00 | 0.00 | 0.00 | 68 | 4246.5 |
| 20260505213530 | 73 | 17 | 0.0 | 1.0 | 0.00 | 0.00 | 0.00 | 69 | 4246.3 |
| 20260505212528 | 73 | 343 | 0.0 | 1.0 | 0.00 | 0.00 | 0.00 | 70 | 4246.5 |
| 20260505211528 | 73 | 349 | 1.0 | 1.0 | 0.00 | 0.00 | 0.00 | 69 | 4246.7 |
| 20260505210528 | 75 | 238 | 3.0 | 5.0 | 0.00 | 0.00 | 0.00 | 67 | 4246.7 |
| 20260505205523 | 75 | 322 | 0.0 | 1.0 | 0.00 | 0.00 | 0.00 | 68 | 4246.6 |
| 20260505204523 | 75 | 297 | 1.0 | 1.0 | 0.00 | 0.00 | 0.00 | 64 | 4246.7 |
| 20260505203523 | 75 | 301 | 1.0 | 1.0 | 0.00 | 0.00 | 0.00 | 65 | 4246.8 |
| 20260505202522 | 73 | 15 | 0.0 | 1.0 | 0.00 | 0.00 | 0.00 | 68 | 4246.9 |
| 20260505201521 | 72 | 45 | 1.0 | 1.0 | 0.00 | 0.00 | 0.00 | 67 | 4247.4 |
| 20260505200516 | 72 | 177 | 2.0 | 2.0 | 0.00 | 0.00 | 0.00 | 67 | 4247.2 |
| 20260505195515 | 73 | 251 | 2.0 | 3.0 | 0.00 | 0.00 | 0.00 | 66 | 4247.1 |
| 20260505194510 | 74 | 353 | 1.0 | 1.0 | 0.00 | 0.00 | 0.00 | 65 | 4246.9 |
| 20260505193507 | 75 | 8 | 2.0 | 3.0 | 0.00 | 0.00 | 0.00 | 62 | 4247.4 |
| 20260505192503 | 75 | 34 | 2.0 | 2.0 | 0.00 | 0.00 | 0.00 | 63 | 4247.1 |
| 20260505191458 | 74 | 243 | 1.0 | 2.0 | 0.00 | 0.00 | 0.00 | 65 | 4247.8 |
| 20260505190456 | 74 | 343 | 1.0 | 1.0 | 0.00 | 0.00 | 0.00 | 67 | 4247.8 |
| 20260505185455 | 74 | 349 | 0.0 | 1.0 | 0.00 | 0.00 | 0.00 | 71 | 4247.9 |
| 20260505184454 | 73 | 303 | 0.0 | 1.0 | 0.00 | 0.00 | 0.00 | 74 | 4248.0 |
| 20260505183454 | 71 | 282 | 0.0 | 1.0 | 0.00 | 0.00 | 0.00 | 78 | 4248.1 |
| 20260505182453 | 71 | 216 | 1.0 | 1.0 | 0.00 | 0.00 | 0.00 | 80 | 4248.0 |
| 20260505181453 | 70 | 356 | 0.0 | 1.0 | 0.00 | 0.00 | 0.00 | 81 | 4248.2 |
| 20260505180452 | 69 | 305 | 0.0 | 0.0 | 0.00 | 0.00 | 0.00 | 79 | 4248.3 |
| 20260505175450 | 69 | 250 | 0.0 | 1.0 | 0.00 | 0.00 | 0.00 | 76 | 4248.8 |
| 20260505174451 | 71 | 267 | 1.0 | 1.0 | 0.00 | 0.00 | 0.00 | 76 | 4248.8 |
| 20260505173449 | 71 | 326 | 0.0 | 0.0 | 0.00 | 0.00 | 0.00 | 71 | 4249.0 |
| 20260505172445 | 71 | 236 | 1.0 | 2.0 | 0.00 | 0.00 | 0.00 | 67 | 4249.5 |
| 20260505171441 | 72 | 144 | 2.0 | 3.0 | 0.00 | 0.00 | 0.00 | 64 | 4249.5 |
| 20260505170440 | 72 | 293 | 0.0 | 1.0 | 0.00 | 0.00 | 0.00 | 63 | 4249.8 |
| 20260505165437 | 73 | 268 | 3.0 | 3.0 | 0.00 | 0.00 | 0.00 | 60 | 4249.5 |
| 20260505164436 | 74 | 110 | 3.0 | 3.0 | 0.00 | 0.00 | 0.00 | 57 | 4249.4 |
| 20260505163432 | 75 | 238 | 5.0 | 7.0 | 0.00 | 0.00 | 0.00 | 56 | 4249.3 |
| 20260505162432 | 76 | 308 | 1.0 | 2.0 | 0.00 | 0.00 | 0.00 | 56 | 4249.7 |
| 20260505161432 | 76 | 241 | 4.0 | 6.0 | 0.00 | 0.00 | 0.00 | 55 | 4249.9 |
| 20260505160428 | 76 | 47 | 3.0 | 3.0 | 0.00 | 0.00 | 0.00 | 59 | 4250.0 |